User: anonymous   Login
Location: Oshawa
(43.9000°N, 78.8670°W)
Time: 02:41:00
(UTC-05:00)
Language:

Cosmos 1707 Rocket - Orbit

View from above orbital plane
View from above orbital plane
View from above satellite
View from above satellite

Ground track
Ground track

The orbit data is extracted from the following two-line orbital elements,

1 16327U 85113B   16343.90891256  .00000109  00000-0  10376-4 0  9995
2 16327  82.5354 270.2686 0017523 255.0550 170.5152 14.83331547673678
Epoch (UTC): 08 December 2016 21:48:50
Eccentricity: 0.0017523
inclination: 82.5354°
perigee height: 606 km
apogee height: 631 km
right ascension of ascending node: 270.2686°
argument of perigee: 255.0550°
revolutions per day: 14.83331547
mean anomaly at epoch: 170.5152°
orbit number at epoch: 67367

The dashed part of the orbit path shows where the satellite is in the earth's shadow,  

DLR